STARLINK-31296, 58879

Orbit data source: Space-Track

STARLINK-31296, 58879 is a payload satellite owned by SpaceX/Seattle (US) in LEO that was launched on Mon, 29 Jan 2024 UTC via an FALCON 9 launch vehicle from the Air Force Western Test Range (AFWTR). Payload-class satellites include a variety of spacecraft equipped with specific instruments for various scientific and technological missions. These include communications satellites like Starlink; space stations such as the ISS; scientific satellites like the Hubble; Earth observation satellites from companies like Planet Labs, Umbra, and HawkEye 360; GPS; miniature CubeSats for education and research; and military/defense satellites.

Loading next visibility...
Identifier
58879, 2024-020D
Orbit
LEO
Country
Flag of USUS
Related business
Manufacturer
SpaceX/Seattle
Mission
Operational Commercial Communications
Bus & Motor
STARLINK V2M, Unknown motor
Mass
730 kg wet, ~700 kg dry
Launch date (UTC)
2024-01-29 (2 years ago)
Launch vehicle
FALCON 9
Launch site
Air Force Western Test Range (AFWTR)
Object type
Payload
Rocket body
Debris
Shape & HBR
Box + 2 Pan, 17.7 m
Radar Cross Section
33.884 m², Large (>1 m²)

Expand to show TLE details & history
Last TLE update: 2 days ago

TLE from 2 days ago
0 STARLINK-31296
1 58879U 24020D   26171.29775257  .00000718  00000-0  36368-4 0  9992
2 58879  53.1604 180.0438 0001086  82.7154 277.3970 15.30198874134148
Epoch: 2026-06-20T07:08Z
TLE epoch observation values (Epoch: 2026-06-20T07:08:45.822Z)
Latitude
-0.00001°
Longitude
164.33847°
Altitude
476.022 km
Speed
7.629 km/s
True Right ascension
12h 00m 10s
True Declination
0° 00' 00"
Sunlit
Object was in daylight at epoch
Visualization orbit readout
Latitude
Unknown
Longitude
Unknown
Altitude
Unknown
Speed
Unknown
Apparent Right ascension
Unknown
Apparent Declination
Unknown
Sunlit
N/A
Visualization observer readout
Local Sidereal Time
21:25:30
Azimuth
Unknown
Elevation
Unknown
Doppler factor
Unknown
Orbital elements
Apogee altitude
476.219 km
Perigee altitude
474.73 km
Semi-major axis
6,853.612 km
Eccentricity
0.00011
Inclination
53.1604°
RAAN
180.0438°
Arg. of periapsis
82.7154°
True anomaly
277.38466°
Mean anomaly
277.397°
Eccentric anomaly
277.39083°
Mean motion
3.82529 °/min
Orbital period
94.11 mins
BSTAR
0.000036368
Loading maneuver chart data...
Computing Atmospheric mass density...
Loading historical data...
Loading historical data...
Loading historical data...
Loading historical data...
Loading historical data...
Loading historical data...
Loading historical data...

Documentation

Showing up to 5 results
|